Weather in Monastyryshche

Ukraine / Chernihiv Region     50°48′42″N   32°09′39″E
temp.,
°C
wind,
m/s
gust,
m/s
humid.,
%
clouds,
%
prec.,
mm/h
press.,
hPa
HPBL,
m
14 may, fri
fri1400:00+10se4107836 0.0 1011190
03:00+11se3671100 0.0 1011127
06:00+10ese4877100 0.0 1010188
09:00+14se477499 0.0 1009323
12:00+19sse466680 0.0 10081055
15:00+20s566764 1.9 10071192
18:00+19ssw47732 1.8 1007699
21:00+15ssw228321 1.9 100712
15 may, sat
sat1500:00+14sse348591 0.0 100859
03:00+11s34935 0.0 100855
06:00+10ssw36965 0.0 1009127
09:00+15sw467989 0.0 1010525
12:00+18ssw676656 0.5 10111426
15:00+20sw8105651 0.9 10101964
18:00+18sw58695 0.1 10111167
21:00+13ssw3384100 0.1 101228
16 may, sun
sun1600:00+12ssw22875 0.0 101217
03:00+11sw22905 0.0 101330
06:00+11wsw12920 0.0 101316
09:00+16wsw12732 0.0 1013391
12:00+20sw12555 0.0 10131009
15:00+22sse124898 0.0 10121414
18:00+22ese235754 0.0 1011930
21:00+16ene457232 0.0 101153
17 may, mon
mon1700:00+15ene487719 0.0 1010120
03:00+14e41082100 0.0 1010163
06:00+14ene41083100 0.0 1008180
09:00+16e1386100 1.1 1007132
12:00+18nw4484100 0.5 1006494
15:00+18wnw5586100 0.6 1006495
18:00+15wnw3697100 1.4 1006229
21:00+13wnw229898 1.6 100721
18 may, tue
tue1800:00+12wnw229825 0.0 100733
03:00+12wsw229753 0.0 100824
06:00+12wsw229867 0.0 100850
09:00+16wnw2384100 0.0 1009564
12:00+20wsw3362100 0.1 10101365
15:00+20wsw44565 0.1 10091474
18:00+20wsw336455 0.0 10091046
21:00+15nne117353 0.0 100911